星链-36672(STARLINK-36672)

导读 | 豆包AI

STARLINK-36672是美国SpaceX公司星链(Starlink)星座的成员卫星,于2026年2月20日发射升空。星链项目旨在搭建覆盖全球的低轨卫星互联网,为偏远地区等网络薄弱区域提供高速宽带服务。该卫星运行于近地轨道,采用平板设计,搭载霍尔推进器,具备自主避撞能力,服役结束后会主动离轨并在大气层中焚毁,是SpaceX构建全球卫星通信网络的重要组成部分。

基本信息
目录编号:
67874
目录名称:
STARLINK-36730
国际标识:
2026-034AA
轨道中心:
EARTH
卫星名称:
星链-36672
卫星全名:
星链-36672(STARLINK-36672)
卫星状态:
在轨 (已飞行94 天)
发射日期:
2026-02-20 UTC
国别 :
美国 (US)
星等 :
--
轨道信息
数据来源 国际轨道数据
星历时间: 2026-05-25T12:28:06+0800
6小时前
查看轨道信息
半长轴: 6840.809km
偏心率: 0.0001076
轨道倾角: 53.157°
近地点辐角 80.927°
升交点赤经 207.076°
平近点角 279.185°
近地点: 461.935km
远地点: 463.409km
周期: 93.847分钟
每日圈数: 15.344107
详细信息
固有亮度:
5
最大亮度:
2.5
卫星平台:
Starlink V1.0
覆盖范围:
全球
运营商:
太空探索技术公司
运营商所在国:
美国
制造商(研发单位):
太空探索技术公司
制造商所在国:
美国
使用方式:
暂无
卫星简介
Starlink 计划是 SpaceX 推出的全球卫星互联网项目,通过发射低轨道卫星,为全球尤其是偏远地区提供高速、低延迟的互联网服务。自 2019 年起,Starlink 已部署数千颗卫星,旨在缩小全球数字鸿沟,推动互联网普及。该项目还为军事、航空等行业提供通信支持,带来广泛经济效益。
2D轨道图
3D轨道图
轨道高度分析图
轨道倾角分析图
轨道综合分析图
查看轨道综合分析图